Tracking 18823 objects as of 24-October-2017
HD Live streaming from Space Station
objects crossing your sky now

RADIO 6

Track RADIO 6 now!
10-day predictions
RADIO 6 is classified as:


NORAD ID: 13002
Int'l Code: 1981-120F
Perigee: 1,585.7 km
Apogee: 1,667.9 km
Inclination: 83.0 °
Period: 118.6 minutes
Semi major axis: 7997 km
RCS: 0.8643 m2 (medium)
Launch date: December 17, 1981
Source: Commonwealth of Independent States (former USSR) (CIS)
Launch site: PLESETSK MISSILE AND SPACE COMPLEX (PKMTR)
Uplink (MHz):
Downlink (MHz):
Beacon (MHz):
Mode:
Call sign:
Status:

aabbcc
Your satellite tracking list
Your tracking list is empty





NASA's NSSDC Master Catalog

Two Line Element Set (TLE):
1 13002U 81120F   17296.92006803 +.00000059 +00000-0 +50848-3 0  9993
2 13002 082.9598 244.8703 0051372 156.5382 267.6330 12.13792049588292
Source of the keplerian elements: AFSPC